Regional Weather Roundup
Issued by NWS Albany, NY

Home | Current Version | Previous Version | Graphics & Text | Print | Product List | Glossary On
Versions: 1 2 3 4 5 6 7 8 9 10 11 12 13 14 15 16 17 18 19 20 21 22 23 24 25 26 27 28 29 30 31 32 33 34 35 36 37 38 39 40 41 42 43 44 45 46 47 48 49 50
000
ASUS41 KALY 281810
RWRALY

NEW YORK STATE HOURLY WEATHER ROUNDUP
NATIONAL WEATHER SERVICE ALBANY NY
100 PM EST SAT FEB 28 2015

NOTE: "FAIR" INDICATES FEW OR NO CLOUDS BELOW 12,000 FEET WITH NO
SIGNIFICANT WEATHER AND/OR NO OBSTRUCTIONS TO VISIBILITY.

NYZ032-033-038>043-046>054-057>066-NYZ062>081-281900-
EAST


CITY           SKY/WX    TMP DP  RH WIND       PRES   REMARKS
ALBANY         SUNNY     22   3  44 VRB5      30.77F WCI  16
GLENS FALLS    SUNNY     19   4  51 SE8       30.74F WCI   9
POUGHKEEPSIE   SUNNY     23   0  36 CALM      30.77F
NEWBURGH       SUNNY     19   1  45 CALM      30.76F
MONTGOMERY     SUNNY     21  -1  38 S5        30.74F WCI  15
WHITE PLAINS   SUNNY     22   2  42 NW6       30.74F WCI  14
ISLIP          MOSUNNY   24   5  44 NW12      30.75F WCI  13
NEW YORK CITY  MOSUNNY   25   1  35 NW6       30.78F WCI  18
CENTRAL PARK   SUNNY     25   1  35 CALM      30.80F
$$

NYZ005>009-017-018-044>046-055-056-281900-
CENTRAL


CITY           SKY/WX    TMP DP  RH WIND       PRES   REMARKS
FULTON         SUNNY     20   2  45 SW9       30.76F WCI   9
SYRACUSE       SUNNY     18   3  53 W9        30.77F WCI   6
ROME           MIX PCPN  17   4  56 NW7       30.78F WCI   8
ELMIRA         SUNNY     19  -1  41 VRB3      30.74F
BINGHAMTON     SUNNY     17  -1  45 CALM      30.66F
MONTICELLO     SUNNY     19   3  49 W7        30.67F WCI  10
$$

NYZ026>034-041>043-281900-
NORTH


CITY           SKY/WX    TMP DP  RH WIND       PRES   REMARKS
WATERTOWN      PTSUNNY   20   8  60 S9        30.75F WCI   9
FORT DRUM      NOT AVBL
MASSENA        SUNNY     20   6  55 SW14      30.72F WCI   7
SARANAC LAKE   MOSUNNY   18   2  49 VRB6G16   30.56F WCI  10
PLATTSBURGH    SUNNY     17   3  54 SE18      30.70F WCI   1
$$

NYZ001>004-010>016-019>021-281900-
WEST


CITY           SKY/WX    TMP DP  RH WIND       PRES   REMARKS
NIAGARA FALLS  MOSUNNY   16   5  62 SW13      30.76F WCI   2
BUFFALO        MOSUNNY   15   3  59 SW12      30.76F WCI   2
DUNKIRK        SUNNY     16   4  59 W8        30.77F WCI   5
JAMESTOWN      SUNNY     16   0  48 SW6       30.66F WCI   7
WELLSVILLE     SUNNY     19  -4  36 SE6       30.63F WCI  11
ROCHESTER      SUNNY     21   4  47 SW9       30.76F WCI  11
PENN YAN       SUNNY     19   0  43 SE3       30.73F
$$

             KEY
       WCI = WIND CHILL INDEX
       VSB = VISIBILITY
       HX  = HEAT INDEX
$$



USA.gov is the U.S. government's official web portal to all federal, state and local government web resources and services.